sat.trackr.live / text

‹ back to catalog

STARLINK-36329

NORAD 67739 · 2026-026U

PAYLOAD ACTIVE UNKNOWN

§ Identity

Operator
Country
US
Launch date
2026-02-11
Launch site
AFWTR
Launch vehicle
Mass (kg)
RCS (m²)

Purposes: comms

External: N2YO · Heavens-Above · Gunter

§ Orbital elements

Epoch: 2026-05-25T02:46:42.388032Z

Period
93.91 min
Inclination
97.2849°
Eccentricity
0.0000223
Mean motion
15.33447301 rev/d
Perigee alt
465.4 km
Apogee alt
465.7 km
Semi-major
6,843.7 km
B*
5.1502e-4
RAAN
198.7208°
Arg perigee
314.9674°
Mean anomaly
45.1551°
Rev number
1,584

§ Raw data

STARLINK-363291 67739U 26026U   26145.11576838  .00016589  00000+0  51502-3 0  99992 67739  97.2849 198.7208 0000223 314.9674  45.1551 15.33447301 15849

JSON: /api/v1/satellites/67739 · /tle

For live sub-satellite position, see the globe view (requires WebGL).

§ Visibility from observer

Set your observer location to see the next 7 days of passes ≥ 10°. The values pass through the URL so the page stays shareable.

No JS? Fill the form by hand. The geolocation button needs JavaScript.